TimeEST,TemperatureF,Dew PointF,Humidity,Sea Level PressureIn,VisibilityMPH,Wind Direction,Wind SpeedMPH,Gust SpeedMPH,PrecipitationIn,Events,Conditions,WindDirDegrees,DateUTC
12:53 AM,61.0,59.0,93,30.07,10.0,SE,3.5,-,N/A,,Mostly Cloudy,130,2013-01-02 05:53:00
1:53 AM,57.9,57.0,97,30.07,6.0,ENE,3.5,-,N/A,,Scattered Clouds,60,2013-01-02 06:53:00
2:03 AM,57.2,57.2,100,30.07,4.0,Calm,Calm,-,N/A,,Mostly Cloudy,0,2013-01-02 07:03:00
2:14 AM,57.2,57.2,100,30.06,5.0,Calm,Calm,-,N/A,,Mostly Cloudy,0,2013-01-02 07:14:00
2:53 AM,59.0,57.9,96,30.07,9.0,Calm,Calm,-,N/A,,Mostly Cloudy,0,2013-01-02 07:53:00
4:53 AM,60.1,59.0,96,30.07,10.0,Calm,Calm,-,N/A,,Overcast,0,2013-01-02 09:53:00
5:53 AM,57.9,57.0,97,30.08,9.0,Calm,Calm,-,N/A,,Scattered Clouds,0,2013-01-02 10:53:00
6:53 AM,59.0,57.9,96,30.08,7.0,SE,4.6,-,N/A,,Clear,140,2013-01-02 11:53:00
7:03 AM,57.2,55.4,94,30.08,1.8,Calm,Calm,-,N/A,,Partly Cloudy,0,2013-01-02 12:03:00
7:10 AM,57.2,55.4,94,30.09,7.0,ENE,3.5,-,N/A,,Clear,60,2013-01-02 12:10:00
7:53 AM,59.0,57.9,96,30.10,7.0,Calm,Calm,-,N/A,,Clear,0,2013-01-02 12:53:00
8:53 AM,66.0,64.0,93,30.10,10.0,South,4.6,-,N/A,,Clear,170,2013-01-02 13:53:00
9:53 AM,73.0,66.0,79,30.11,10.0,South,9.2,-,N/A,,Clear,190,2013-01-02 14:53:00
10:53 AM,77.0,66.0,69,30.11,10.0,SW,9.2,-,N/A,,Partly Cloudy,230,2013-01-02 15:53:00
11:53 AM,77.0,64.9,66,30.09,10.0,West,9.2,-,N/A,,Mostly Cloudy,270,2013-01-02 16:53:00
12:53 PM,78.1,64.0,62,30.06,10.0,WSW,8.1,-,N/A,,Mostly Cloudy,250,2013-01-02 17:53:00
1:53 PM,78.1,64.9,64,30.03,10.0,WSW,11.5,-,N/A,,Clear,250,2013-01-02 18:53:00
2:53 PM,78.1,66.0,66,30.02,10.0,WSW,12.7,-,N/A,,Clear,250,2013-01-02 19:53:00
3:53 PM,75.9,66.0,71,30.03,10.0,West,13.8,-,N/A,,Partly Cloudy,270,2013-01-02 20:53:00
4:53 PM,73.9,66.9,79,30.04,10.0,WSW,11.5,-,N/A,,Clear,240,2013-01-02 21:53:00
5:53 PM,70.0,66.0,87,30.05,10.0,WSW,5.8,-,N/A,,Clear,240,2013-01-02 22:53:00
6:53 PM,68.0,66.0,93,30.06,10.0,WSW,3.5,-,N/A,,Clear,240,2013-01-02 23:53:00
7:31 PM,64.4,64.4,100,30.07,1.0,Calm,Calm,-,N/A,,Mist,0,2013-01-03 00:31:00
7:53 PM,64.0,63.0,96,30.08,0.5,Calm,Calm,-,N/A,Fog,Fog,0,2013-01-03 00:53:00
8:06 PM,62.6,62.6,100,30.08,0.2,Calm,Calm,-,N/A,Fog,Fog,0,2013-01-03 01:06:00
8:28 PM,62.6,62.6,100,30.08,0.2,Calm,Calm,-,N/A,Fog,Fog,0,2013-01-03 01:28:00
8:50 PM,62.6,60.8,94,30.08,0.2,Calm,Calm,-,N/A,Fog,Fog,0,2013-01-03 01:50:00
8:53 PM,62.1,61.0,96,30.08,0.5,Calm,Calm,-,N/A,Fog,Fog,0,2013-01-03 01:53:00
9:07 PM,60.8,60.8,100,30.08,0.2,South,3.5,-,N/A,Fog,Fog,170,2013-01-03 02:07:00
9:14 PM,60.8,60.8,100,30.09,0.2,SSE,3.5,-,N/A,Fog,Fog,160,2013-01-03 02:14:00
9:53 PM,61.0,60.1,97,30.10,0.2,Calm,Calm,-,0.01,Fog,Fog,0,2013-01-03 02:53:00
10:53 PM,63.0,63.0,100,30.10,0.5,Calm,Calm,-,N/A,Fog,Fog,0,2013-01-03 03:53:00
11:53 PM,64.9,64.9,100,30.09,0.2,Calm,Calm,-,N/A,Fog,Fog,0,2013-01-03 04:53:00